Back to catalog

ONEWEB-0492

AliveCommunicationsPO
NORAD 54114·PAYLOAD·🇬🇧 United Kingdom

Launched Oct 22, 2022 from Satish Dhawan Space Centre

Loading…

Next Passes (next 24 hours)

TLE

FreshSource: CelesTrak SupGP

Epoch: Sep 14, 2026, 08:15 UTC

1 54114C 22138B   26257.34427500  .00000160  00000+0  40042-3 0  2574
2 54114  87.9112 287.2083 0001805  88.6512  24.8136 13.19723521    18

Track ONEWEB-0492 in real time with AllMySat

Download on the App Store